Regional Weather Roundup
Issued by NWS Spokane, WA

Home | Current Version | Previous Version | Text Only | Print | Product List | Glossary On
Versions: 1 2 3 4 5 6 7 8 9 10 11 12 13 14 15 16 17 18 19 20 21 22 23 24 25 26 27 28 29 30 31 32 33 34 35 36 37 38 39 40 41 42 43 44 45 46 47 48 49 50
000
NZUS01 KOTX 281010
RWROTX
EASTERN WASHINGTON/NORTHERN IDAHO ROUNDUP
NATIONAL WEATHER SERVICE, SPOKANE WA
300 AM PDT THU MAY 28 2015

Note: "fair" indicated few or no clouds below 12,000 feet with no
significant weather and/or obstructions to visibility.

...NORTHEAST WASHINGTON AND NORTHERN IDAHO PANHANDLE...

CITY           SKY/WX    TMP DP  RH WIND       PRES   REMARKS
SPOKANE INTL   PTCLDY    54  49  83 S8        30.02S
SPOKANE DOWNTO MOCLDY    58  51  78 NE3       30.03R
COEUR D ALENE  MOCLDY    57  50  77 E6        30.04R
DEER PARK      PTCLDY    48  46  93 CALM      30.03R
SANDPOINT      MOCLDY    54  54 100 CALM      30.04R
BONNERS FERRY  FAIR      55  50  82 E6        30.04R

...SOUTHEAST WASHINGTON AND SOUTHERN IDAHO PANHANDLE...

CITY           SKY/WX    TMP DP  RH WIND       PRES   REMARKS
WALLA WALLA    CLEAR     58  48  69 E7        30.00S
PULLMAN/MOSCOW CLEAR     52  47  83 NE6       30.06R
LEWISTON       CLEAR     54  50  86 SE5       30.03R
LOWELL           N/A     50  48  93 CALM      30.11R

...COLUMBIA BASIN...

CITY           SKY/WX    TMP DP  RH WIND       PRES   REMARKS
EPHRATA        CLEAR     56  51  84 NE5       29.97R
MOSES LAKE     CLEAR     58  52  80 SE5       29.98R
TRI CITIES     CLEAR     60  51  72 E3        29.98R
HERMISTON      CLEAR     52  48  86 CALM      29.98S
PENDLETON      CLEAR     52  46  80 SE7       30.01R

...EAST SLOPES CASCADES...

CITY           SKY/WX    TMP DP  RH WIND       PRES   REMARKS
THE DALLES     CLEAR     62  52  69 CALM      29.98R
YAKIMA         CLEAR     59  50  72 W5        30.00S
ELLENSBURG     CLEAR     56  49  77 NW7       30.01S
WENATCHEE      CLEAR     65  50  58 NW9       29.98S
OMAK           CLEAR     53  46  77 NW3       29.98R

...SOUTHERN BRITISH COLUMBIA...

CITY           SKY/WX    TMP DP  RH WIND       PRES   REMARKS
PENTICTON      CLEAR     54  48  82 CALM      29.99R
CRANBROOK      MOCLDY    52  50  93 VRB2      30.05R

...WESTERN MONTANA...

CITY           SKY/WX    TMP DP  RH WIND       PRES   REMARKS
MISSOULA       CLOUDY    49  45  86 CALM      30.07S

...NEIGHBORING CITIES...

CITY           SKY/WX    TMP DP  RH WIND       PRES   REMARKS
SEATTLE        CLEAR     57  52  83 W3        30.05S
CALGARY        MOCLDY    55  45  67 NW16G24   30.08R



USA.gov is the U.S. government's official web portal to all federal, state and local government web resources and services.